Tracking 18980 objects as of 22-Feb-2018
HD Live streaming from Space Station
objects crossing your sky now

FENGYUN 1C DEB

Track FENGYUN 1C DEB now!
10-day predictions


NORAD ID: 36724
Int'l Code: 1999-025EAW
Perigee: 782.3 km
Apogee: 974.6 km
Inclination: 99.5 °
Period: 102.4 minutes
Semi major axis: 7249 km
RCS: 0.0016 m2 (small)
Launch date: May 10, 1999
Source: People's Republic of China (PRC)
Launch site: Taiyaun Space Center, China (TSC)

Note: This is SATELLITE DEBRIS
aabbcc
Your satellite tracking list
Your tracking list is empty




NASA's NSSDC Master Catalog

Two Line Element Set (TLE):
1 36724U 99025EAW 18050.33800157 +.00000502 +00000-0 +30752-3 0  9995
2 36724 099.5025 249.9793 0132638 197.7871 287.4771 14.06521798481091
Source of the keplerian elements: AFSPC